sat.trackr.live / text

‹ back to catalog

STARLINK-31354

NORAD 58942 · 2024-027M

PAYLOAD ACTIVE UNKNOWN

§ Identity

Operator
Country
US
Launch date
2024-02-10
Launch site
AFWTR
Launch vehicle
Mass (kg)
RCS (m²)

Purposes: comms

External: N2YO · Heavens-Above · Gunter

§ Orbital elements

Epoch: 2026-09-20T00:56:01.497408Z

Period
94.01 min
Inclination
53.1584°
Eccentricity
0.0001333
Mean motion
15.31704511 rev/d
Perigee alt
469.8 km
Apogee alt
471.6 km
Semi-major
6,848.9 km
B*
1.0982e-4
RAAN
125.5030°
Arg perigee
88.5357°
Mean anomaly
271.5797°
Rev number
14,710

§ Raw data

STARLINK-313541 58942U 24027M   26263.03890622  .00003045  00000+0  10982-3 0  99962 58942  53.1584 125.5030 0001333  88.5357 271.5797 15.31704511147107

JSON: /api/v1/satellites/58942 · /tle

For live sub-satellite position, see the globe view (requires WebGL).

§ Visibility from observer

Set your observer location to see the next 7 days of passes ≥ 10°. The values pass through the URL so the page stays shareable.

No JS? Fill the form by hand. The geolocation button needs JavaScript.